Wind_Speed
51 53 55 50 51 50 49 47 46 43 45 48 47 42 35 41 41 32 28 28 30 28 31 30 27 27 25 23 22 24 23 27 27 27 27 28 27 27 26 25 26 26 30 30
50 46 47 57 55 49 50 50 50 47 48 53 51 48 42 41 42 34 30 29 22 25 30 30 29 29 26 26 25 23 25 26 27 27 28 28 29 27 27 27 28 31 31 31
50 48 46 48 57 57 52 50 48 50 49 52 55 55 47 47 46 35 31 30 24 20 23 26 31 31 32 28 27 29 29 27 27 28 28 27 26 26 26 29 32 33 33 33
51 49 49 48 48 51 56 52 50 52 52 52 56 61 51 49 47 44 35 27 22 23 23 25 29 33 33 30 33 32 32 31 30 29 29 28 28 26 28 30 31 31 31 31
49 49 51 50 47 52 48 53 56 55 56 56 57 63 56 51 50 42 39 37 29 27 28 27 26 28 35 35 32 33 35 35 34 33 30 31 29 29 31 30 30 31 32 32
50 48 49 48 48 49 51 53 53 56 57 63 56 61 67 54 50 43 42 38 35 34 31 29 29 25 24 32 35 37 36 34 37 39 35 32 32 34 34 32 32 33 32 32
48 48 50 49 48 48 54 56 57 57 59 59 60 66 71 60 54 47 44 42 40 39 35 32 28 26 26 25 35 37 38 35 35 39 40 37 37 37 35 35 34 34 33 32
49 48 46 47 49 50 49 51 56 60 62 55 64 66 68 64 59 50 43 44 43 41 37 35 33 30 27 28 25 26 29 30 34 37 40 42 41 38 36 35 35 36 36 36
54 51 46 47 45 46 43 43 41 48 52 58 64 55 55 60 62 58 49 46 43 42 38 37 33 33 33 33 31 32 30 29 31 35 39 41 43 39 36 37 38 38 38 39
50 51 51 53 52 49 47 43 38 41 44 47 48 51 53 54 54 57 53 48 46 46 44 39 37 35 35 34 35 37 36 35 33 32 36 39 39 39 37 38 39 38 38 38
51 52 53 54 55 52 49 48 40 42 48 46 42 40 39 47 49 52 51 46 48 48 46 42 38 38 38 37 38 37 38 39 37 34 33 34 37 39 35 28 28 34 39 44
49 52 51 51 48 44 50 52 49 50 47 51 52 42 35 38 37 38 43 42 44 48 47 46 43 40 39 39 41 38 39 40 40 39 34 33 33 35 38 41 43 44 43 43
50 51 50 49 47 46 45 47 47 47 50 50 50 33 35 37 38 35 37 36 34 40 43 44 44 43 41 39 39 39 39 39 42 44 42 39 38 39 41 43 44 45 46 47
49 50 50 47 42 44 47 43 45 37 42 38 45 36 40 39 37 32 32 31 29 33 41 45 44 44 43 41 40 39 39 39 40 41 42 44 43 43 44 46 48 49 50 52
40 43 46 48 48 47 49 54 53 45 43 48 35 41 31 29 27 30 29 30 30 30 35 43 47 45 45 44 43 45 45 45 46 46 46 47 47 48 49 49 51 53 54 55
41 44 46 45 46 47 52 51 54 55 57 51 48 47 34 35 30 35 36 32 25 29 35 37 37 41 43 45 44 43 44 46 46 46 47 48 49 50 50 52 54 56 58 56
44 39 42 50 50 51 46 53 53 54 53 61 60 46 40 43 40 35 35 36 36 37 46 48 49 48 47 45 44 45 45 47 48 48 49 51 52 52 52 54 58 56 54 54
50 51 54 53 53 61 55 55 51 55 55 57 55 50 48 42 43 40 43 44 44 44 46 49 52 54 52 50 45 43 44 45 45 46 47 48 50 52 54 56 56 54 54 53
50 52 52 55 59 61 60 52 57 54 54 45 51 46 49 52 53 47 41 43 43 43 47 48 48 50 47 48 46 44 44 44 43 44 45 45 47 49 50 51 50 49 50 51
49 54 58 56 60 65 49 51 49 59 65 42 44 49 46 53 56 43 38 37 38 41 40 40 45 48 51 47 45 47 46 47 47 47 47 51 54 55 52 51 51 51 51 51
52 55 61 57 62 62 53 48 43 56 52 52 44 42 47 45 47 40 39 43 47 44 39 39 44 46 46 48 47 44 46 47 47 48 50 51 52 51 52 51 51 52 52 52
49 53 56 62 63 61 56 46 55 48 49 48 50 39 42 41 47 49 47 41 42 45 44 45 48 54 52 50 51 50 48 47 47 48 49 49 50 50 49 50 50 47 45 44
50 49 50 59 59 52 52 52 49 49 49 46 41 40 37 40 36 42 48 47 48 48 46 49 50 53 50 51 47 47 45 46 45 46 47 47 48 49 47 46 45 43 43 42
41 44 48 51 54 55 46 50 58 48 52 48 49 46 45 43 43 40 44 42 43 49 49 53 55 54 53 48 43 41 41 41 44 45 46 45 44 43 41 40 40 39 39 39
34 40 44 50 60 57 45 49 53 44 52 56 48 47 44 45 44 45 47 45 46 48 53 52 54 57 44 39 40 38 40 42 43 43 43 41 38 35 35 36 37 39 40 40
30 36 42 45 51 39 33 39 50 54 51 46 43 47 42 38 41 44 44 42 47 49 46 45 39 36 36 38 40 42 41 40 40 40 38 37 33 31 31 32 34 35 36 37
Wind_Direction
226 227 228 237 236 233 230 229 231 231 236 240 240 236 236 240 241 238 245 245 243 241 237 240 241 246 244 241 238 244 244 243 245 243 246 246 241 249 252 256 262 265 263 258
228 230 227 227 231 233 231 230 230 229 232 240 242 238 235 242 241 244 243 249 250 248 247 246 243 246 248 245 245 245 244 245 244 242 241 248 252 256 256 261 259 256 256 256
232 230 230 230 231 232 235 236 233 232 230 238 242 242 236 239 246 251 252 250 251 255 255 254 249 244 245 246 246 246 244 247 248 249 247 245 247 251 254 251 250 251 256 263
231 234 233 232 234 238 236 237 236 234 233 233 242 244 240 241 245 246 247 246 255 257 243 247 248 251 251 246 245 248 252 247 246 247 251 247 245 244 247 251 255 259 261 263
237 237 239 237 237 237 238 237 240 238 237 235 237 247 236 242 246 248 247 249 256 256 252 254 254 249 255 252 249 253 255 259 257 250 247 251 250 246 246 247 251 255 259 262
230 235 239 240 234 233 237 237 239 240 239 236 238 245 243 238 244 245 247 251 254 256 255 253 256 261 262 256 253 251 256 260 261 257 250 246 247 248 247 248 249 252 256 262
232 234 235 234 232 230 233 236 238 240 240 245 241 239 248 243 242 243 246 249 250 254 257 256 257 260 263 264 248 249 250 255 259 257 253 248 246 248 251 254 259 263 265 267
229 229 230 231 229 230 232 236 240 244 245 246 245 240 250 252 250 247 248 249 253 254 255 256 259 259 260 254 260 260 261 258 257 258 254 252 251 252 253 257 261 263 267 270
225 227 225 225 226 225 232 238 244 248 251 250 249 249 248 247 249 248 242 245 250 252 252 255 257 262 256 251 246 254 259 261 263 259 255 253 253 253 255 257 259 263 266 269
226 225 221 224 228 234 240 238 242 243 249 252 254 250 247 248 247 249 243 241 241 250 254 254 254 254 260 255 251 253 253 258 261 266 263 259 257 254 254 257 262 267 269 267
225 227 229 228 234 238 238 238 229 242 243 251 253 251 245 250 248 247 249 240 237 241 246 250 251 253 250 255 252 249 255 253 256 258 259 255 250 253 260 258 257 255 258 263
229 231 230 231 233 236 234 239 238 240 251 254 260 250 257 259 264 257 254 252 239 236 240 245 248 249 249 248 249 251 252 255 253 252 253 253 249 242 244 249 255 260 267 272
230 233 233 234 236 240 241 238 241 247 249 249 250 245 245 256 263 268 266 257 241 237 237 238 243 247 248 248 250 252 253 254 254 253 255 253 251 252 253 257 261 264 268 271
232 233 238 242 245 243 239 239 238 232 246 257 255 252 255 263 265 266 267 269 263 238 236 238 238 242 243 243 244 246 249 248 250 253 255 256 256 258 259 262 265 270 273 275
226 230 235 239 242 241 238 235 232 234 241 243 254 254 251 248 251 262 252 247 249 246 238 242 242 239 239 239 240 243 246 248 250 252 253 254 255 257 260 264 266 267 269 271
223 230 232 237 240 247 245 240 239 241 241 238 249 244 251 243 250 254 255 251 238 226 236 241 241 240 239 242 244 244 246 249 252 254 254 254 256 259 262 265 269 272 274 278
227 229 234 237 240 240 244 249 248 244 242 241 244 260 251 255 251 253 248 254 250 243 236 242 243 243 246 243 244 244 244 246 248 251 253 256 259 263 267 273 277 280 280 282
243 242 242 241 242 242 246 245 249 248 246 243 247 247 240 249 245 248 243 243 240 239 236 237 239 242 244 247 249 249 249 251 253 256 260 263 266 269 274 277 278 277 277 279
245 247 248 246 245 247 242 247 251 251 243 245 249 238 237 246 244 252 248 244 248 247 247 252 248 244 247 245 246 248 248 251 255 259 262 265 269 270 270 271 271 272 273 273
243 244 245 245 247 247 249 243 251 252 240 234 245 237 246 261 246 243 244 245 249 251 253 253 251 247 249 248 247 250 253 256 258 260 262 265 267 269 268 268 268 270 272 273
244 245 245 246 248 249 244 241 241 245 235 236 250 246 254 250 244 249 250 246 245 248 251 252 239 235 237 242 247 251 253 254 255 257 259 260 262 262 264 267 271 272 275 277
252 249 250 246 245 246 244 246 244 250 235 248 245 248 245 247 241 242 246 244 243 247 248 244 240 238 241 242 244 246 247 251 256 258 260 260 263 266 268 270 272 273 276 279
250 252 254 246 243 247 253 253 248 253 235 249 236 230 242 241 238 242 246 248 248 242 245 241 236 237 238 241 240 240 248 253 257 259 262 265 267 268 269 272 273 274 275 278
249 248 248 247 235 233 250 249 249 253 241 245 238 243 246 236 241 249 251 254 252 245 244 242 238 242 241 245 243 246 248 253 258 260 262 264 265 266 267 269 272 274 277 277
247 250 248 246 234 240 250 239 242 251 246 249 242 246 243 243 248 253 253 250 254 247 244 244 240 238 240 242 243 247 251 253 256 257 258 259 258 261 266 269 272 274 275 276
258 249 235 233 235 252 238 230 238 244 251 239 248 243 240 253 248 250 245 251 248 247 241 247 243 239 240 243 246 247 249 250 251 252 251 252 255 260 267 272 275 277 280 280
Height
5729 5736 5751 5764 5764 5768 5774 5779 5784 5793 5795 5796 5801 5809 5812 5812 5817 5824 5828 5828 5830 5834 5834 5837 5840 5842 5844 5845 5847 5848 5850 5849 5850 5850 5851 5852 5853 5854 5856 5856 5857 5857 5856 5856
5723 5734 5745 5745 5751 5758 5764 5769 5777 5782 5786 5789 5793 5801 5808 5806 5810 5818 5822 5824 5826 5828 5830 5833 5835 5837 5840 5840 5842 5844 5843 5844 5845 5845 5844 5847 5847 5850 5850 5851 5852 5851 5850 5850
5720 5729 5734 5738 5744 5750 5758 5764 5770 5774 5777 5780 5783 5789 5800 5803 5803 5809 5816 5821 5822 5825 5826 5828 5829 5831 5834 5835 5836 5836 5837 5839 5841 5841 5841 5842 5843 5844 5845 5844 5843 5844 5845 5845
5709 5719 5726 5732 5739 5744 5750 5757 5759 5763 5766 5771 5772 5775 5791 5796 5799 5802 5810 5816 5819 5820 5822 5822 5823 5824 5828 5831 5828 5830 5832 5833 5835 5836 5836 5836 5838 5838 5838 5838 5838 5839 5839 5840
5707 5712 5717 5724 5735 5734 5744 5745 5747 5750 5753 5758 5764 5764 5784 5790 5794 5802 5806 5809 5814 5816 5815 5818 5819 5821 5822 5824 5825 5825 5826 5828 5829 5830 5831 5831 5832 5833 5831 5832 5832 5832 5831 5831
5695 5703 5707 5719 5723 5727 5730 5733 5736 5739 5741 5739 5764 5758 5767 5785 5790 5797 5799 5801 5804 5809 5811 5813 5813 5815 5817 5817 5817 5818 5820 5821 5821 5822 5824 5825 5825 5825 5825 5826 5827 5825 5826 5826
5689 5696 5701 5706 5712 5716 5720 5724 5726 5727 5727 5739 5751 5745 5756 5772 5782 5789 5792 5794 5796 5799 5804 5808 5808 5809 5811 5811 5810 5810 5811 5813 5813 5814 5816 5818 5818 5818 5819 5819 5820 5821 5821 5821
5681 5687 5692 5698 5702 5707 5712 5715 5718 5718 5720 5736 5724 5730 5749 5762 5772 5781 5785 5786 5789 5791 5795 5799 5802 5803 5804 5805 5805 5805 5804 5805 5806 5806 5808 5809 5811 5812 5813 5814 5813 5813 5814 5813
5672 5677 5685 5689 5693 5699 5704 5707 5714 5711 5714 5717 5717 5733 5740 5747 5756 5765 5773 5776 5779 5781 5785 5789 5792 5795 5796 5798 5799 5799 5799 5799 5799 5799 5799 5800 5801 5804 5805 5805 5805 5806 5806 5805
5665 5672 5677 5681 5685 5691 5696 5700 5703 5704 5706 5706 5712 5721 5729 5737 5744 5748 5757 5764 5767 5769 5773 5779 5781 5785 5788 5790 5791 5791 5792 5792 5792 5791 5791 5791 5792 5794 5795 5796 5797 5797 5796 5795
5658 5664 5669 5673 5676 5682 5685 5689 5695 5697 5698 5702 5707 5713 5722 5723 5729 5735 5741 5750 5754 5758 5762 5766 5771 5774 5777 5780 5782 5783 5784 5784 5784 5784 5783 5781 5783 5785 5783 5785 5787 5787 5786 5784
5650 5652 5655 5662 5665 5671 5675 5681 5685 5689 5696 5693 5696 5705 5713 5715 5717 5723 5729 5735 5741 5746 5750 5754 5758 5762 5765 5767 5771 5773 5774 5776 5776 5776 5776 5776 5775 5775 5776 5776 5776 5775 5776 5774
5639 5641 5644 5649 5656 5660 5665 5670 5675 5681 5681 5686 5689 5702 5706 5708 5709 5713 5714 5720 5728 5735 5739 5743 5747 5750 5754 5757 5761 5764 5765 5766 5767 5768 5769 5768 5768 5768 5768 5768 5767 5766 5765 5764
5627 5631 5634 5640 5651 5655 5659 5663 5668 5671 5672 5681 5681 5693 5695 5698 5703 5704 5705 5710 5716 5724 5728 5732 5735 5738 5741 5745 5748 5751 5753 5755 5756 5758 5758 5759 5759 5759 5759 5758 5758 5757 5755 5753
5617 5621 5624 5629 5633 5640 5644 5650 5655 5657 5666 5663 5680 5679 5688 5690 5692 5694 5694 5698 5705 5712 5716 5719 5723 5727 5729 5731 5733 5736 5740 5742 5744 5745 5746 5747 5748 5748 5748 5748 5747 5745 5743 5741
5609 5612 5616 5618 5623 5626 5629 5637 5644 5650 5656 5655 5667 5669 5685 5681 5683 5685 5687 5688 5695 5703 5706 5708 5711 5714 5717 5719 5722 5724 5727 5730 5731 5732 5734 5735 5735 5736 5736 5735 5734 5732 5730 5728
5600 5604 5607 5610 5613 5615 5616 5635 5636 5638 5643 5649 5650 5668 5677 5670 5674 5678 5679 5681 5685 5690 5693 5696 5699 5702 5703 5705 5707 5710 5713 5715 5717 5719 5720 5722 5723 5723 5722 5720 5719 5718 5716 5714
5591 5596 5597 5601 5603 5596 5619 5618 5626 5626 5633 5637 5641 5651 5661 5663 5663 5662 5664 5665 5667 5672 5675 5680 5683 5687 5691 5693 5696 5698 5700 5702 5704 5705 5706 5707 5708 5708 5708 5707 5706 5704 5702 5701
5582 5584 5585 5587 5589 5591 5600 5619 5614 5612 5618 5628 5631 5642 5650 5647 5648 5652 5656 5656 5659 5664 5667 5671 5674 5676 5678 5680 5683 5686 5688 5690 5691 5692 5693 5693 5693 5694 5693 5692 5691 5690 5688 5686
5573 5573 5572 5578 5574 5576 5609 5605 5607 5602 5597 5626 5623 5630 5637 5631 5633 5646 5645 5648 5651 5653 5656 5659 5662 5665 5668 5669 5671 5673 5675 5676 5677 5678 5678 5678 5678 5678 5678 5678 5676 5675 5674 5671
5561 5561 5560 5568 5563 5568 5588 5594 5593 5585 5608 5611 5617 5624 5625 5621 5633 5639 5637 5637 5638 5641 5644 5646 5648 5651 5655 5657 5658 5660 5661 5662 5663 5664 5665 5665 5665 5665 5664 5663 5662 5661 5659 5657
5550 5552 5555 5558 5557 5557 5568 5580 5582 5590 5598 5600 5605 5610 5611 5613 5617 5619 5621 5624 5626 5628 5631 5633 5635 5638 5641 5645 5647 5648 5649 5650 5650 5651 5652 5652 5653 5652 5652 5651 5649 5647 5646 5644
5536 5540 5544 5547 5551 5558 5561 5567 5570 5575 5584 5589 5593 5594 5598 5602 5606 5607 5610 5612 5614 5617 5618 5620 5622 5625 5629 5630 5632 5634 5636 5638 5639 5640 5640 5640 5640 5639 5638 5638 5636 5635 5633 5631
5526 5530 5531 5536 5543 5545 5548 5552 5557 5564 5570 5576 5581 5584 5588 5593 5595 5597 5598 5599 5600 5603 5605 5606 5609 5613 5614 5617 5620 5622 5624 5627 5629 5630 5629 5629 5628 5627 5626 5625 5624 5622 5620 5619
5517 5520 5522 5527 5531 5536 5538 5543 5546 5553 5559 5565 5570 5573 5577 5580 5582 5585 5587 5587 5589 5590 5591 5594 5595 5598 5601 5604 5607 5610 5613 5615 5616 5617 5617 5617 5617 5616 5615 5614 5612 5611 5610 5609
5505 5510 5513 5518 5524 5525 5528 5531 5537 5543 5548 5554 5558 5562 5565 5567 5570 5573 5574 5575 5577 5578 5580 5581 5584 5587 5591 5594 5598 5600 5602 5603 5604 5605 5605 5605 5604 5603 5602 5602 5602 5602 5601 5600